FLOCK 4V-3 (46322 NORAD) Tracking and Keplerian Element Data

This shows tracking and keplerian element data for the satellite.

Feedback or suggestion? Click here.




ElementValue
Catalog46322
NameFLOCK 4V-3
Epoch Orbit2057
Epoch Day17.76825232
Epoch Year2021
RAAN94.4326
Inclination97.5054
Eccentricity0.0004056
Argument of Perigee140.3507
Mean Anonmoly219.802
Mean Motion15.11069004
Decay Rate4.85E-06
L11 46322U 20061BC 21017.76825232 .00000485 00000-0 32748-4 0 9997
L22 46322 97.5054 94.4326 0004056 140.3507 219.8020 15.11069004 20575

Live tracking and technical data element details for FLOCK 4V-3 (NORAD 46322). FLOCK 4V-3 can be tracked NOW for your location showing map with azimuth and elevation plus other details from your city location.

Track the satellite on the map from your city or location and see movement details for azimuth, elevation, latitude, longitude, range, height, and movement on the map or in text.







IsCatalogInMostPopularTable: catalog: 46322, numindb: 32
Update: records affected: 1



GetName: 46322 FLOCK 4V-3

Hit Count: updated at: Tue, 19 Jan 2021 03:18:30 GMT